Voltar ao catálogo

ZY 1

AtivoCiênciaSSO
NORAD 38038·PAYLOAD·🇨🇳 China

Lançado Dec 22, 2011 de Taiyuan Satellite Launch Center

Loading…

Próximas Passagens (próximas 24 horas)

TLE

AtualizadoSource: Space-Track

Época: Sep 14, 2026, 15:06 UTC

1 38038U 11079A   26257.62983882  .00000250  00000-0  96455-4 0  9998
2 38038  98.3992 323.0350 0007323  47.4625 110.1613 14.38273066772068

Acompanhe ZY 1 em tempo real com AllMySat

Download on the App Store